| time (UTC) | temp F | wind direction | speed knots | gust knots | rain 1hr in | rain 24hr in | rain mn in | humidity % | barometer mb |
| 20260507144534 | 55 | 74 | 5.2 | 11.3 | 0.00 | 0.00 | 0.00 | 80 | 1019.5 |
| 20260507143032 | 55 | 51 | 7.8 | 13.0 | 0.00 | 0.00 | 0.00 | 81 | 1019.0 |
| 20260507141531 | 54 | 78 | 5.2 | 11.3 | 0.00 | 0.00 | 0.00 | 82 | 1019.6 |
| 20260507140034 | 54 | 53 | 5.2 | 12.2 | 0.00 | 0.00 | 0.00 | 83 | 1019.4 |
| 20260507134530 | 54 | 102 | 4.3 | 10.4 | 0.00 | 0.02 | 0.00 | 83 | 1019.4 |
| 20260507133028 | 54 | 59 | 5.2 | 10.4 | 0.00 | 0.02 | 0.00 | 84 | 1019.8 |
| 20260507131527 | 53 | 32 | 4.3 | 12.2 | 0.00 | 0.02 | 0.00 | 85 | 1019.4 |
| 20260507130026 | 53 | 44 | 6.1 | 12.2 | 0.00 | 0.02 | 0.00 | 85 | 1019.5 |
| 20260507124526 | 53 | 61 | 7.0 | 13.0 | 0.00 | 0.03 | 0.00 | 85 | 1019.5 |
| 20260507123026 | 53 | 59 | 3.5 | 11.3 | 0.00 | 0.03 | 0.00 | 86 | 1019.3 |
| 20260507121521 | 53 | 67 | 4.3 | 12.2 | 0.00 | 0.03 | 0.00 | 86 | 1019.0 |
| 20260507120019 | 53 | 43 | 8.7 | 16.5 | 0.00 | 0.03 | 0.00 | 85 | 1019.0 |
| 20260507114515 | 54 | 28 | 4.3 | 13.0 | 0.00 | 0.03 | 0.00 | 85 | 1018.9 |
| 20260507113021 | 54 | 63 | 6.1 | 13.9 | 0.00 | 0.03 | 0.00 | 85 | 1018.6 |
| 20260507111513 | 54 | 44 | 5.2 | 12.2 | 0.00 | 0.03 | 0.00 | 86 | 1018.5 |
| 20260507110009 | 54 | 24 | 6.1 | 12.2 | 0.00 | 0.03 | 0.00 | 85 | 1018.3 |
| 20260507104510 | 54 | 41 | 6.1 | 13.0 | 0.00 | 0.03 | 0.00 | 85 | 1018.1 |
| 20260507103008 | 54 | 43 | 6.1 | 13.0 | 0.00 | 0.03 | 0.00 | 84 | 1018.0 |
| 20260507101504 | 55 | 39 | 7.8 | 15.6 | 0.00 | 0.03 | 0.00 | 83 | 1018.0 |
| 20260507100003 | 55 | 24 | 7.0 | 13.9 | 0.00 | 0.03 | 0.00 | 83 | 1018.1 |
| 20260507094559 | 55 | 76 | 7.0 | 13.0 | 0.00 | 0.03 | 0.00 | 83 | 1018.0 |
| 20260507093056 | 55 | 31 | 7.0 | 11.3 | 0.00 | 0.03 | 0.00 | 83 | 1018.1 |
| 20260507091552 | 56 | 86 | 6.1 | 10.4 | 0.00 | 0.03 | 0.00 | 83 | 1017.8 |
| 20260507090050 | 56 | 51 | 2.6 | 9.6 | 0.00 | 0.03 | 0.00 | 83 | 1017.6 |
| 20260507084553 | 56 | 49 | 3.5 | 8.7 | 0.00 | 0.03 | 0.00 | 83 | 1017.4 |
| 20260507083050 | 56 | 71 | 3.5 | 8.7 | 0.00 | 0.03 | 0.00 | 83 | 1017.6 |
| 20260507081645 | 57 | 80 | 3.5 | 9.6 | 0.00 | 0.03 | 0.00 | 84 | 1017.1 |
| 20260507080100 | 56 | 61 | 2.6 | 8.7 | 0.00 | 0.03 | 0.00 | 84 | 1017.0 |
| 20260507074545 | 56 | 46 | 4.3 | 8.7 | 0.00 | 0.03 | 0.00 | 85 | 1016.8 |
| 20260507073040 | 57 | 57 | 3.5 | 6.1 | 0.00 | 0.03 | 0.00 | 88 | 1016.9 |
| 20260507071553 | 57 | 67 | 2.6 | 7.8 | 0.00 | 0.03 | 0.00 | 89 | 1016.3 |
| 20260507070036 | 57 | 54 | 2.6 | 7.8 | 0.00 | 0.03 | 0.00 | 89 | 1016.1 |
| 20260507064533 | 56 | 58 | 0.9 | 2.6 | 0.00 | 0.03 | 0.00 | 89 | 1016.1 |
| 20260507063035 | 56 | 57 | 1.7 | 4.3 | 0.00 | 0.03 | 0.00 | 89 | 1015.7 |
| 20260507061532 | 56 | 58 | 2.6 | 5.2 | 0.00 | 0.03 | 0.00 | 88 | 1015.5 |
| 20260507060030 | 56 | 66 | 0.9 | 3.5 | 0.00 | 0.03 | 0.00 | 88 | 1015.6 |
| 20260507054528 | 56 | 62 | 0.9 | 4.3 | 0.00 | 0.03 | 0.00 | 88 | 1015.6 |
| 20260507053027 | 57 | 65 | 0.9 | 4.3 | 0.00 | 0.03 | 0.00 | 87 | 1016.0 |
| 20260507051526 | 57 | 59 | 0.9 | 5.2 | 0.00 | 0.03 | 0.00 | 87 | 1015.5 |
| 20260507050022 | 57 | 63 | 2.6 | 5.2 | 0.00 | 0.03 | 0.00 | 86 | 1015.3 |
| 20260507044521 | 58 | 128 | 0.0 | 1.7 | 0.00 | 0.03 | 0.03 | 85 | 1015.2 |
| 20260507043024 | 59 | 128 | 0.0 | 2.6 | 0.00 | 0.03 | 0.03 | 85 | 1015.2 |
| 20260507041517 | 59 | 128 | 0.9 | 3.5 | 0.00 | 0.03 | 0.03 | 84 | 1014.8 |
| 20260507040016 | 59 | 128 | 0.9 | 2.6 | 0.00 | 0.03 | 0.03 | 83 | 1014.6 |
| 20260507034515 | 59 | 128 | 0.9 | 2.6 | 0.00 | 0.03 | 0.03 | 82 | 1014.3 |
| 20260507033012 | 60 | 128 | 1.7 | 3.5 | 0.00 | 0.03 | 0.03 | 81 | 1014.2 |
| 20260507031510 | 60 | 128 | 1.7 | 2.6 | 0.00 | 0.03 | 0.03 | 80 | 1013.9 |
| 20260507030011 | 61 | 128 | 0.9 | 3.5 | 0.00 | 0.03 | 0.03 | 79 | 1013.6 |
| 20260507024507 | 62 | 126 | 1.7 | 4.3 | 0.00 | 0.03 | 0.03 | 77 | 1013.5 |
| 20260507023007 | 62 | 113 | 0.9 | 5.2 | 0.00 | 0.03 | 0.03 | 76 | 1013.1 |
| 20260507021511 | 63 | 110 | 0.9 | 6.1 | 0.00 | 0.03 | 0.03 | 74 | 1012.8 |
| 20260507020007 | 64 | 90 | 1.7 | 6.1 | 0.00 | 0.03 | 0.03 | 72 | 1012.5 |
| 20260507014505 | 65 | 115 | 1.7 | 6.1 | 0.00 | 0.03 | 0.03 | 70 | 1012.6 |
| 20260507013005 | 66 | 71 | 1.7 | 5.2 | 0.00 | 0.03 | 0.03 | 68 | 1012.4 |
| 20260507011504 | 67 | 92 | 2.6 | 4.3 | 0.00 | 0.03 | 0.03 | 66 | 1012.3 |
| 20260507010004 | 69 | 69 | 2.6 | 8.7 | 0.00 | 0.03 | 0.03 | 62 | 1012.0 |
| 20260507004503 | 70 | 64 | 3.5 | 8.7 | 0.00 | 0.03 | 0.03 | 60 | 1011.9 |
| 20260507003005 | 70 | 72 | 4.3 | 8.7 | 0.00 | 0.03 | 0.03 | 60 | 1011.9 |
| 20260507001501 | 71 | 65 | 2.6 | 8.7 | 0.00 | 0.03 | 0.03 | 58 | 1011.6 |
| 20260507000002 | 72 | 36 | 4.3 | 9.6 | 0.00 | 0.03 | 0.03 | 56 | 1011.4 |
| 20260506234606 | 72 | 88 | 4.3 | 7.8 | 0.00 | 0.03 | 0.03 | 58 | 1011.5 |
| 20260506233059 | 72 | 55 | 3.5 | 8.7 | 0.00 | 0.03 | 0.03 | 57 | 1011.4 |
| 20260506231559 | 72 | 84 | 4.3 | 7.8 | 0.00 | 0.03 | 0.03 | 57 | 1011.5 |
| 20260506230059 | 73 | 68 | 4.3 | 8.7 | 0.00 | 0.03 | 0.03 | 57 | 1011.4 |
| 20260506224558 | 73 | 54 | 0.9 | 7.8 | 0.00 | 0.03 | 0.03 | 56 | 1011.3 |
| 20260506223056 | 73 | 54 | 4.3 | 7.8 | 0.00 | 0.03 | 0.03 | 58 | 1011.1 |
| 20260506221555 | 73 | 82 | 2.6 | 8.7 | 0.00 | 0.03 | 0.03 | 58 | 1011.1 |
| 20260506220106 | 73 | 46 | 1.7 | 7.8 | 0.00 | 0.03 | 0.03 | 59 | 1011.1 |
| 20260506214553 | 72 | 39 | 3.5 | 10.4 | 0.00 | 0.03 | 0.03 | 60 | 1011.1 |
| 20260506213055 | 71 | 74 | 1.7 | 7.8 | 0.00 | 0.03 | 0.03 | 62 | 1011.2 |
| 20260506211548 | 70 | 78 | 2.6 | 7.0 | 0.00 | 0.03 | 0.03 | 63 | 1011.6 |
| 20260506210048 | 69 | 41 | 4.3 | 8.7 | 0.00 | 0.03 | 0.03 | 65 | 1011.5 |
| 20260506204543 | 68 | 38 | 5.2 | 9.6 | 0.00 | 0.03 | 0.03 | 66 | 1011.4 |
| 20260506203119 | 67 | 51 | 6.1 | 8.7 | 0.00 | 0.03 | 0.03 | 69 | 1011.8 |
| 20260506201546 | 65 | 34 | 4.3 | 7.8 | 0.00 | 0.03 | 0.03 | 71 | 1012.0 |
| 20260506200047 | 64 | 49 | 4.3 | 8.7 | 0.00 | 0.03 | 0.03 | 72 | 1012.6 |
| 20260506194640 | 63 | 53 | 3.5 | 7.8 | 0.00 | 0.03 | 0.03 | 75 | 1012.6 |
| 20260506193039 | 62 | 84 | 3.5 | 8.7 | 0.00 | 0.03 | 0.03 | 76 | 1012.6 |
| 20260506191538 | 61 | 82 | 3.5 | 7.8 | 0.00 | 0.03 | 0.03 | 78 | 1012.9 |
| 20260506190046 | 60 | 73 | 3.5 | 7.8 | 0.00 | 0.03 | 0.03 | 79 | 1013.2 |
| 20260506184545 | 60 | 105 | 3.5 | 8.7 | 0.00 | 0.03 | 0.03 | 79 | 1013.0 |
| 20260506183036 | 60 | 106 | 4.3 | 9.6 | 0.00 | 0.03 | 0.03 | 78 | 1013.2 |
| 20260506181538 | 60 | 36 | 6.1 | 10.4 | 0.00 | 0.03 | 0.03 | 78 | 1013.3 |
| 20260506180037 | 60 | 38 | 5.2 | 9.6 | 0.00 | 0.03 | 0.03 | 79 | 1013.4 |
| 20260506174534 | 60 | 45 | 5.2 | 11.3 | 0.00 | 0.03 | 0.03 | 78 | 1013.4 |
| 20260506173044 | 59 | 45 | 5.2 | 10.4 | 0.00 | 0.03 | 0.03 | 78 | 1013.5 |
| 20260506171536 | 59 | 69 | 5.2 | 9.6 | 0.00 | 0.03 | 0.03 | 79 | 1013.5 |
| 20260506170031 | 58 | 47 | 5.2 | 11.3 | 0.00 | 0.03 | 0.03 | 80 | 1013.4 |
| 20260506164530 | 57 | 43 | 6.1 | 10.4 | 0.00 | 0.03 | 0.03 | 81 | 1013.1 |
| 20260506163047 | 57 | 61 | 7.0 | 11.3 | 0.00 | 0.03 | 0.03 | 82 | 1013.1 |
| 20260506161528 | 56 | 36 | 6.1 | 9.6 | 0.00 | 0.03 | 0.03 | 84 | 1012.8 |
| 20260506160025 | 56 | 30 | 5.2 | 10.4 | 0.00 | 0.03 | 0.03 | 85 | 1012.7 |
| 20260506154531 | 55 | 42 | 4.3 | 9.6 | 0.00 | 0.03 | 0.03 | 86 | 1012.6 |
| 20260506153027 | 54 | 38 | 3.5 | 7.8 | 0.00 | 0.03 | 0.03 | 88 | 1012.2 |
| 20260506151521 | 54 | 54 | 4.3 | 9.6 | 0.00 | 0.03 | 0.03 | 89 | 1012.3 |
| 20260506150019 | 53 | 29 | 6.1 | 13.0 | 0.00 | 0.03 | 0.03 | 90 | 1012.0 |